Погода в Петровке

Россия / Оренбургская область     52°27′20″N   54°17′23″E
темп.,
°C
ветер,
м/с
пор.,
м/с
влажн.,
%
обл.,
%
осадки,
мм/ч
давл.,
гПа
погр.,
м
28 сентября, вт
вт2823:00+4всв7116233 0.0 1012716
02:00+3св696596 0.0 1013927
05:00+3св6107493 0.0 1014729
08:00+2св71293100 0.0 1016636
11:00+5св81065100 0.0 10161139
14:00+7св7950100 0.0 10171550
17:00+9св71044100 0.0 10181739
20:00+6св4105359 0.0 1020426
29 сентября, ср
ср2923:00+3ссв3106122 0.0 1022232
02:00+2ссв377398 0.0 1023159
05:00+1ссв3882100 0.0 1024197
08:000ссв39855 0.0 1025251
11:00+6ссв68495 0.0 1025944
14:00+9ссв66375 0.0 10241631
17:00+10св463280 0.0 10242096
20:00+5ссв484612 0.0 1026133
30 сентября, чт
чт3023:00+3св38595 0.0 1027136
02:00+2ссв33695 0.0 102732
05:00+1ссв22745 0.0 102814
08:00+1ссв22775 0.0 102928
11:00+7ссв34495 0.0 1029695
14:00+9с333666 0.0 10281842
17:00+10ссз443296 0.0 10281956
20:00+6ссз334368 0.0 102829
1 октября, пт
пт123:00+4зсз224969 0.0 102912
02:00+3зсз225952 0.0 103011
05:00+2з226857 0.0 103016
08:00+4з2764100 0.0 1030210
11:00+6з4670100 0.0 1030437
14:00+8з4673100 0.0 1030548
17:00+8зсз4678100 0.0 1030524
20:00+7з3686100 0.0 1031273
2 октября, сб
сб223:00+7з3585100 0.0 1031146
02:00+7зюз3584100 0.0 1031143
05:00+7зюз3584100 0.1 1031139
08:00+7з358790 0.0 1031129
11:00+12зсз456521 0.0 1031586
14:00+12зсз456484 0.0 1031717
17:00+14сз4456100 0.1 10301148
20:00+9ссв227194 0.1 103115